Location: Columbia, SC
(34.0000°N, 81.0300°W)
Time: 19:26:46
(UTC-04:00)

Tiangong 1 - Visible Passes

Search period start: 31 July 2015 00:00
Search period end: 10 August 2015 00:00
Orbit: 369 x 389 km, 42.8° (Epoch: 31 July)

Date Brightness Start Highest point End Pass type
(mag) Time Alt. Az. Time Alt. Az. Time Alt. Az.
04 Aug 3.7 05:12:46 10° SSE 05:13:43 11° SE 05:14:47 10° ESE visible
05 Aug 1.7 05:46:18 15° SW 05:48:37 44° SSE 05:51:36 10° ENE visible
06 Aug 3.1 04:47:47 20° SE 04:47:47 20° SE 04:49:41 10° E visible
07 Aug 0.9 05:21:16 41° WSW 05:22:13 87° SE 05:25:18 10° ENE visible
08 Aug 3.6 04:22:36 19° E 04:22:36 19° E 04:23:39 10° ENE visible
08 Aug 2.4 05:54:41 10° W 05:57:24 30° NNW 06:00:11 10° NE visible
09 Aug 1.6 04:55:56 50° N 04:55:56 50° N 04:58:46 10° NE visible
